CDT,Max TemperatureF,Mean TemperatureF,Min TemperatureF,Max Dew PointF,MeanDew PointF,Min DewpointF,Max Humidity, Mean Humidity, Min Humidity, Max Sea Level PressureIn, Mean Sea Level PressureIn, Min Sea Level PressureIn, Max VisibilityMiles, Mean VisibilityMiles, Min VisibilityMiles, Max Wind SpeedMPH, Mean Wind SpeedMPH, Max Gust SpeedMPH,PrecipitationIn, CloudCover, Events, WindDirDegrees
2012-10-1,79,68,59,68,63,57,99,85,54,29.91,29.87,29.83,10,9,1,22,7,33,0.15,4,Rain-Thunderstorm,280
2012-10-2,80,69,59,60,55,48,98,66,34,29.99,29.94,29.90,10,10,10,17,8,22,0.00,0,,332
2012-10-3,84,70,55,65,58,54,96,71,41,30.01,29.97,29.93,10,10,10,14,6,,0.00,0,,162
2012-10-4,90,79,68,74,70,64,100,87,49,30.09,30.03,30.00,10,9,4,17,6,23,0.00,5,,145
2012-10-5,88,76,66,72,69,64,100,86,47,30.11,30.05,29.95,10,8,0,15,5,18,0.00,3,Fog,164
2012-10-6,76,68,58,68,63,52,100,85,64,30.10,30.03,29.97,10,10,10,16,7,21,0.00,3,,53
2012-10-7,58,54,51,51,46,43,82,73,64,30.22,30.17,30.11,10,10,10,18,13,28,0.00,8,,29
2012-10-8,68,59,51,55,46,39,80,67,53,30.25,30.17,30.08,10,10,10,12,7,,0.03,5,,55
2012-10-9,80,70,60,69,59,53,95,77,63,30.12,30.02,29.92,10,10,10,14,7,22,0.19,6,,187
2012-10-10,88,80,71,74,72,69,100,91,55,30.09,30.02,29.98,10,10,5,14,5,,0.00,6,,156
2012-10-11,86,78,71,77,73,70,100,95,71,30.13,30.07,30.03,10,9,1,17,5,,0.02,6,Rain,123
2012-10-12,86,78,71,74,72,68,100,92,58,30.17,30.11,30.03,10,10,10,13,7,,0.00,6,,147
2012-10-13,87,80,73,75,73,71,100,89,62,30.08,30.01,29.86,10,10,10,18,11,24,0.00,4,,169
2012-10-14,88,78,69,74,70,58,100,83,54,30.07,30.01,29.92,10,9,3,18,7,24,0.08,3,Rain,15
2012-10-15,78,70,61,61,57,52,87,66,41,30.11,30.04,29.99,10,9,5,10,4,,0.00,0,,29
2012-10-16,72,68,63,70,65,54,100,88,64,29.97,29.86,29.79,10,10,9,14,3,,0.00,6,,104
2012-10-17,90,76,64,72,67,63,100,92,46,29.78,29.74,29.62,10,4,0,14,5,,0.00,5,Fog,199
2012-10-18,79,70,58,57,47,43,67,45,29,29.99,29.90,29.74,10,7,2,21,11,28,0.00,0,,39
2012-10-19,82,65,49,47,42,34,78,59,18,30.05,29.98,29.92,10,4,1,10,6,,0.00,0,Rain,355
2012-10-20,86,72,57,74,64,46,98,76,53,29.94,29.88,29.78,10,10,10,15,6,20,0.00,4,,199
2012-10-21,90,81,73,74,72,65,100,85,43,29.93,29.88,29.82,10,10,6,20,12,22,0.00,4,,173
2012-10-22,90,80,72,74,72,68,99,88,51,29.96,29.92,29.87,10,9,6,18,12,23,0.00,5,,163
2012-10-23,86,77,69,72,71,68,100,89,59,29.97,29.93,29.88,10,10,10,12,8,,0.00,7,Rain,163
2012-10-24,86,75,64,72,66,60,100,91,46,29.99,29.93,29.84,10,4,0,13,2,18,0.00,1,Fog,158
2012-10-25,87,77,68,72,68,59,100,86,52,29.96,29.85,29.81,10,10,7,14,5,22,0.00,4,Rain,160
2012-10-26,66,59,49,61,48,38,95,69,54,30.24,30.09,29.96,10,9,2,23,14,29,0.36,8,Rain-Thunderstorm,7
2012-10-27,63,56,48,42,34,30,62,45,31,30.30,30.21,30.13,10,9,4,15,11,23,0.00,6,,4
2012-10-28,67,56,44,39,32,30,80,45,27,30.28,30.22,30.15,10,9,4,10,7,,0.00,4,,21
2012-10-29,69,54,40,45,38,34,86,58,30,30.30,30.22,30.14,10,10,2,8,5,,0.00,0,,358
2012-10-30,76,58,42,56,49,40,92,71,46,30.13,30.05,29.97,10,10,10,10,4,,0.00,0,,240
2012-10-31,82,67,52,67,59,52,100,82,47,30.08,30.02,29.96,10,10,2,7,4,,0.00,2,,311